Regional Weather Roundup
Issued by NWS

Home | Current Version | Previous Version | Graphics & Text | Print | Product List | Glossary On
Versions: 1 2 3 4 5 6 7 8 9 10 11 12 13 14 15 16 17 18 19 20 21 22 23 24 25 26 27
000
ASUS45 KBOI 161910
RWRID

IDAHO REGIONAL WEATHER ROUNDUP
NATIONAL WEATHER SERVICE BOISE ID
1200 PM MST MON JAN 16 2017

NOTE: "FAIR" INDICATES FEW OR NO CLOUDS BELOW 12000 FEET
WITH NO SIGNIFICANT WEATHER AND/OR OBSTRUCTIONS TO VISIBILITY

IDZ012-014-162000-
SOUTHWEST IDAHO


CITY           SKY/WX    TMP DP  RH WIND       PRES   REMARKS
BOISE          MOSUNNY    9   4  80 SW5       30.48F WCI   1
CALDWELL       LGT SNOW  18  15  88 CALM      30.55F FOG
MOUNTAIN HOME  SUNNY      6   6  98 SE7       30.47F WCI  -5
$$

IDZ016-017-162000-
SOUTHCENTRAL IDAHO


CITY           SKY/WX    TMP DP  RH WIND       PRES   REMARKS
BURLEY         CLOUDY    16  10  77 N5        30.35S WCI   9
JEROME         MOSUNNY   11   4  73 NE8       30.37F WCI  -1
TWIN FALLS     SUNNY     18  13  80 NE3       30.36S HAZE
$$

IDZ019>023-162000-
SOUTHEAST IDAHO


CITY           SKY/WX    TMP DP  RH WIND       PRES   REMARKS
IDAHO FALLS    CLOUDY    -1  -5  82 N8        30.35F WCI -15
POCATELLO      CLOUDY     6   1  80 W3        30.36F
REXBURG        CLOUDY     3  -4  72 NE3       30.34F
$$

IDZ006-010-011-018-031-032-162000-
CENTRAL IDAHO MOUNTAINS


CITY           SKY/WX    TMP DP  RH WIND       PRES   REMARKS
MCCALL         CLOUDY     4   2  91 CALM      30.26F FOG
HAILEY         SUNNY      9   1  72 E7        30.30S WCI  -3
STANLEY          N/A     -9 -16  71 NW3       30.30F
SALMON         CLOUDY   -15 -18  84 CALM      30.54F
CHALLIS        SUNNY    -13 -19  75 CALM      30.41F
$$

IDZ002-004-006-007-026-162000-
NORTHERN IDAHO


CITY           SKY/WX    TMP DP  RH WIND       PRES   REMARKS
LEWISTON       MOSUNNY   11   7  84 CALM      30.44F
LOWELL           N/A     19  12  74 N5        30.49F WCI  12
COEUR D`ALENE  CLOUDY    21  18  88 E7        30.36F WCI  12
MULLAN PASS    MOSUNNY   25  18  74 VRB5      30.16F WCI  19
$$




USA.gov is the U.S. government's official web portal to all federal, state and local government web resources and services.